カタログに戻る

ESSA 9

TOS-G

運用中気象SSO
NORAD 3764·PAYLOAD·🇺🇸 United States

打ち上げ Feb 26, 1969 から Cape Canaveral Space Force Station

Loading…

次のパス (今後24時間)

TLE

最新Source: Space-Track

元期: Sep 14, 2026, 10:18 UTC

1 03764U 69016A   26257.42925334 -.00000050  00000-0 -49731-4 0  9991
2 03764 101.4099 253.3449 0050749 299.3508 222.8289 12.49862770998978

AllMySatでESSA 9をリアルタイム追跡

Download on the App Store